• In Österreich
  • Länderverzeichnis
  • Für 7 Tage
  • Wassertemperatur
  • Satellitenkarten
  • Wetterkarte
  • News
  • Widgets
  • user-avatar
    Anmelden

    Stündliche Wetter Innsbruck

    Heute, 11 Dezember, Montag

    Zeit Temperatur Niederschläge Wind Luftdruck Luftfeuchtigkeit
    00:00 -11°C° 0 mm 4 m/S 578 mmHg 85%
    01:00 -10°C° 0 mm 4 m/S 578 mmHg 85%
    02:00 -10°C° 0 mm 4 m/S 578 mmHg 85%
    03:00 -9°C° 0 mm 4 m/S 578 mmHg 86%
    04:00 -9°C° 0 mm 4 m/S 578 mmHg 86%
    05:00 -8°C° 0,1 mm 4 m/S 578 mmHg 87%
    06:00 -8°C° 0,1 mm 4 m/S 578 mmHg 87%
    07:00 -7°C° 0,1 mm 4 m/S 578 mmHg 87%
    08:00 -5°C° 0,1 mm 4 m/S 577 mmHg 87%
    09:00 -5°C° 0,1 mm 4 m/S 577 mmHg 87%
    10:00 -5°C° 0,1 mm 5 m/S 577 mmHg 86%
    11:00 -4°C° 0,1 mm 5 m/S 577 mmHg 87%
    12:00 -4°C° 0,1 mm 5 m/S 577 mmHg 88%
    13:00 -2°C° 0,1 mm 5 m/S 577 mmHg 89%
    14:00 -2°C° 0,1 mm 5 m/S 577 mmHg 89%
    15:00 -2°C° 0,1 mm 5 m/S 577 mmHg 90%
    16:00 -4°C° 0,1 mm 5 m/S 577 mmHg 90%
    17:00 -3°C° 0,4 mm 4 m/S 577 mmHg 91%
    18:00 -4°C° 0,4 mm 4 m/S 577 mmHg 92%
    19:00 -4°C° 0,4 mm 3 m/S 578 mmHg 93%
    20:00 -4°C° 1,2 mm 3 m/S 578 mmHg 94%
    21:00 -4°C° 1,2 mm 3 m/S 578 mmHg 94%
    22:00 -4°C° 1,2 mm 3 m/S 579 mmHg 95%
    23:00 -5°C° 2,2 mm 3 m/S 579 mmHg 96%

    Morgen, 12 Dezember, Dienstag

    Zeit Temperatur Niederschläge Wind Luftdruck Luftfeuchtigkeit
    00:00 -5°C° 2,2 mm 3 m/S 579 mmHg 96%
    01:00 -5°C° 2,2 mm 3 m/S 580 mmHg 96%
    02:00 -4°C° 2 mm 2 m/S 580 mmHg 96%
    03:00 -4°C° 2 mm 2 m/S 580 mmHg 97%
    04:00 -4°C° 2 mm 2 m/S 581 mmHg 97%
    05:00 -5°C° 1,4 mm 2 m/S 582 mmHg 97%
    06:00 -5°C° 1,4 mm 2 m/S 582 mmHg 97%
    07:00 -5°C° 1,4 mm 2 m/S 583 mmHg 97%
    08:00 -6°C° 1 mm 2 m/S 584 mmHg 97%
    09:00 -4°C° 1 mm 1 m/S 585 mmHg 96%
    10:00 -4°C° 1 mm 1 m/S 586 mmHg 96%
    11:00 -6°C° 0,8 mm 1 m/S 586 mmHg 96%
    12:00 -6°C° 0,8 mm 1 m/S 586 mmHg 95%
    13:00 -6°C° 0,8 mm 1 m/S 587 mmHg 95%
    14:00 -7°C° 0,5 mm 1 m/S 587 mmHg 95%
    15:00 -8°C° 0,5 mm 1 m/S 587 mmHg 95%
    16:00 -8°C° 0,5 mm 1 m/S 587 mmHg 96%
    17:00 -10°C° 0,3 mm 2 m/S 588 mmHg 95%
    18:00 -12°C° 0,3 mm 2 m/S 588 mmHg 95%
    19:00 -12°C° 0,3 mm 2 m/S 588 mmHg 95%
    20:00 -12°C° 0,2 mm 2 m/S 589 mmHg 94%
    21:00 -12°C° 0,2 mm 2 m/S 589 mmHg 94%
    22:00 -12°C° 0,2 mm 2 m/S 590 mmHg 93%
    23:00 -12°C° 0,1 mm 2 m/S 590 mmHg 92%

    übermorgen, 13 Dezember, Mittwoch

    Zeit Temperatur Niederschläge Wind Luftdruck Luftfeuchtigkeit
    00:00 -13°C° 0,1 mm 2 m/S 590 mmHg 92%
    01:00 -11°C° 0,1 mm 1 m/S 590 mmHg 91%
    02:00 -12°C° 0 mm 1 m/S 590 mmHg 91%
    03:00 -13°C° 0 mm 1 m/S 589 mmHg 90%
    04:00 -14°C° 0 mm 1 m/S 589 mmHg 90%
    05:00 -14°C° 0 mm 1 m/S 589 mmHg 88%
    06:00 -15°C° 0 mm 1 m/S 589 mmHg 87%
    07:00 -15°C° 0 mm 1 m/S 589 mmHg 86%
    08:00 -14°C° 0 mm 1 m/S 589 mmHg 84%
    09:00 -12°C° 0 mm 1 m/S 590 mmHg 81%
    10:00 -11°C° 0 mm 1 m/S 591 mmHg 79%
    11:00 -10°C° 0 mm 2 m/S 591 mmHg 78%
    12:00 -8°C° 0 mm 2 m/S 591 mmHg 77%
    13:00 -7°C° 0 mm 2 m/S 591 mmHg 75%
    14:00 -8°C° 0 mm 2 m/S 590 mmHg 78%
    15:00 -8°C° 0 mm 2 m/S 589 mmHg 81%
    16:00 -9°C° 0 mm 2 m/S 589 mmHg 84%
    17:00 -10°C° 0 mm 3 m/S 589 mmHg 84%
    18:00 -12°C° 0 mm 3 m/S 588 mmHg 84%
    19:00 -12°C° 0 mm 3 m/S 588 mmHg 84%
    20:00 -12°C° 0 mm 3 m/S 588 mmHg 82%
    21:00 -12°C° 0 mm 3 m/S 588 mmHg 81%
    22:00 -13°C° 0 mm 3 m/S 588 mmHg 80%
    23:00 -12°C° 0 mm 3 m/S 588 mmHg 78%

    14 Dezember, Donnerstag

    Zeit Temperatur Niederschläge Wind Luftdruck Luftfeuchtigkeit
    00:00 -12°C° 0 mm 3 m/S 588 mmHg 76%
    01:00 -12°C° 0 mm 3 m/S 588 mmHg 74%
    02:00 -10°C° 0 mm 3 m/S 587 mmHg 74%
    03:00 -10°C° 0 mm 3 m/S 587 mmHg 74%
    04:00 -10°C° 0 mm 3 m/S 587 mmHg 75%
    05:00 -10°C° 0,4 mm 3 m/S 587 mmHg 78%
    06:00 -10°C° 0,4 mm 3 m/S 587 mmHg 81%
    07:00 -9°C° 0,4 mm 3 m/S 587 mmHg 85%
    08:00 -9°C° 0,9 mm 3 m/S 587 mmHg 86%
    09:00 -8°C° 0,9 mm 3 m/S 587 mmHg 87%
    10:00 -8°C° 0,9 mm 3 m/S 587 mmHg 88%
    11:00 -7°C° 0,6 mm 3 m/S 587 mmHg 88%
    12:00 -6°C° 0,6 mm 3 m/S 587 mmHg 89%
    13:00 -6°C° 0,6 mm 3 m/S 586 mmHg 89%
    14:00 -6°C° 0 mm 3 m/S 586 mmHg 89%
    15:00 -6°C° 0 mm 3 m/S 585 mmHg 89%
    16:00 -7°C° 0 mm 3 m/S 584 mmHg 89%
    17:00 -7°C° 0 mm 3 m/S 584 mmHg 89%
    18:00 -8°C° 0 mm 3 m/S 583 mmHg 89%
    19:00 -8°C° 0 mm 3 m/S 583 mmHg 88%
    20:00 -9°C° 0 mm 4 m/S 582 mmHg 88%
    21:00 -9°C° 0 mm 4 m/S 582 mmHg 87%
    22:00 -9°C° 0 mm 4 m/S 582 mmHg 86%
    23:00 -9°C° 0,2 mm 4 m/S 582 mmHg 88%

    15 Dezember, Freitag

    Zeit Temperatur Niederschläge Wind Luftdruck Luftfeuchtigkeit
    00:00 -9°C° 0,2 mm 4 m/S 582 mmHg 89%
    01:00 -8°C° 0,2 mm 3 m/S 582 mmHg 91%
    02:00 -8°C° 0,7 mm 3 m/S 582 mmHg 93%
    03:00 -7°C° 0,7 mm 2 m/S 583 mmHg 94%
    04:00 -6°C° 0,7 mm 1 m/S 583 mmHg 96%
    05:00 -7°C° 0,6 mm 1 m/S 583 mmHg 96%
    06:00 -7°C° 0,6 mm 1 m/S 583 mmHg 96%
    07:00 -7°C° 0,6 mm 1 m/S 583 mmHg 96%
    08:00 -7°C° 0,5 mm 1 m/S 583 mmHg 95%
    09:00 -7°C° 0,5 mm 1 m/S 583 mmHg 95%
    10:00 -7°C° 0,5 mm 1 m/S 583 mmHg 94%
    11:00 -7°C° 0,5 mm 1 m/S 583 mmHg 93%
    12:00 -7°C° 0,5 mm 1 m/S 583 mmHg 93%
    13:00 -6°C° 0,5 mm 1 m/S 582 mmHg 92%
    14:00 -7°C° 0,6 mm 1 m/S 582 mmHg 93%
    15:00 -7°C° 0,6 mm 1 m/S 582 mmHg 94%
    16:00 -8°C° 0,6 mm 1 m/S 581 mmHg 95%
    17:00 -9°C° 0,3 mm 2 m/S 581 mmHg 95%
    18:00 -10°C° 0,3 mm 2 m/S 581 mmHg 95%
    19:00 -10°C° 0,3 mm 2 m/S 581 mmHg 94%
    20:00 -10°C° 0,4 mm 2 m/S 581 mmHg 94%
    21:00 -12°C° 0,4 mm 2 m/S 582 mmHg 93%
    22:00 -12°C° 0,4 mm 2 m/S 582 mmHg 93%
    23:00 -12°C° 0,2 mm 2 m/S 582 mmHg 92%

    16 Dezember, Samstag

    Zeit Temperatur Niederschläge Wind Luftdruck Luftfeuchtigkeit
    00:00 -12°C° 0,2 mm 2 m/S 582 mmHg 91%
    01:00 -13°C° 0,2 mm 2 m/S 581 mmHg 89%
    02:00 -13°C° 0,1 mm 2 m/S 581 mmHg 89%
    03:00 -14°C° 0,1 mm 2 m/S 581 mmHg 89%
    04:00 -14°C° 0,1 mm 2 m/S 581 mmHg 89%
    05:00 -14°C° 0,1 mm 2 m/S 581 mmHg 88%
    06:00 -14°C° 0,1 mm 2 m/S 581 mmHg 87%
    07:00 -15°C° 0,1 mm 2 m/S 582 mmHg 86%
    08:00 -14°C° 0,1 mm 2 m/S 582 mmHg 86%
    09:00 -13°C° 0,1 mm 2 m/S 583 mmHg 86%
    10:00 -13°C° 0,1 mm 2 m/S 584 mmHg 87%
    11:00 -12°C° 0,2 mm 2 m/S 584 mmHg 88%
    12:00 -12°C° 0,2 mm 2 m/S 585 mmHg 88%
    13:00 -12°C° 0,2 mm 3 m/S 585 mmHg 89%
    14:00 -13°C° 0,2 mm 3 m/S 585 mmHg 90%
    15:00 -13°C° 0,2 mm 3 m/S 586 mmHg 91%
    16:00 -13°C° 0,2 mm 3 m/S 586 mmHg 93%
    17:00 -13°C° 0,3 mm 2 m/S 586 mmHg 93%
    18:00 -13°C° 0,3 mm 2 m/S 587 mmHg 94%
    19:00 -14°C° 0,3 mm 2 m/S 587 mmHg 94%
    20:00 -14°C° 0,1 mm 2 m/S 587 mmHg 94%
    21:00 -15°C° 0,1 mm 2 m/S 587 mmHg 94%
    22:00 -16°C° 0,1 mm 2 m/S 587 mmHg 94%
    23:00 -17°C° 0,1 mm 2 m/S 587 mmHg 92%
    Mehr zeigen